Location: Natural Bridges National Monument
(37.6093°N, 109.9767°W)
Time: 02:02:49
(UTC-07:00)

USA 32 - Visible Passes

Search period start: 25 February 2017 00:00
Search period end: 07 March 2017 00:00
Orbit: 775 x 785 km, 85.0° (Epoch: 11 December)

Date Brightness Start Highest point End Pass type
(mag) Time Alt. Az. Time Alt. Az. Time Alt. Az.
25 Feb 5.7 19:56:00 10° NNE 19:57:46 19° NNE 19:57:46 19° NNE visible
25 Feb 6.6 21:37:13 10° NNW 21:38:21 15° NW 21:38:21 15° NW visible
26 Feb 5.7 19:24:06 10° NNE 19:25:53 16° NE 19:25:53 16° NE visible
26 Feb 5.7 21:03:51 10° NNW 21:06:28 28° NNW 21:06:28 28° NNW visible
27 Feb 4.6 20:30:52 10° N 20:34:42 50° N 20:34:42 50° N visible
28 Feb 4.1 19:58:11 10° N 20:03:06 52° ENE 20:03:06 52° ENE visible
28 Feb 6.6 21:40:43 10° NW 21:43:43 16° W 21:43:43 16° W visible
01 Mar 4.8 19:25:51 10° NNE 19:30:22 29° E 19:31:43 26° ESE visible
01 Mar 5.8 21:06:48 10° NNW 21:11:12 28° W 21:12:20 26° WSW visible
02 Mar 5.5 18:54:07 10° NE 18:57:19 16° ENE 19:00:30 10° ESE visible
02 Mar 4.7 20:33:31 10° NNW 20:38:35 52° W 20:41:20 26° SSW visible
03 Mar 3.9 20:00:36 10° N 20:05:51 86° E 20:11:04 10° S visible
04 Mar 4.2 19:27:59 10° N 19:33:01 46° E 19:38:00 10° SSE visible
04 Mar 6.6 21:10:07 10° NW 21:13:31 18° W 21:16:54 10° WSW visible
05 Mar 5.0 18:55:44 10° NNE 19:00:03 26° ENE 19:04:21 10° SE visible
05 Mar 5.7 20:36:24 10° NNW 20:40:58 32° W 20:45:32 10° SSW visible
06 Mar 4.6 20:03:12 10° NNW 20:08:20 59° W 20:13:26 10° SSW visible
